THOR ABLESTAR DEB

Satellite information

Favourite Embed

Satellite Type and Status

DEBRISIN ORBIT

Key statistics

Satellite THOR ABLESTAR DEB at a glance.

Uptime

23324

Days in orbit

Revolutions

≈ 14.3

Per day

Orbit

LEO

Low Earth Orbit

Inclination

66.6

Latest

Satellite identification and parameters

Extended collection of information and parameters for THOR ABLESTAR DEB.

Object identification

Identified? True

Debris? True

Object name: THOR ABLESTAR DEB

International designator: 1961-015NE

Object number (NORAD): 48826

Object ID (CCSDS): 48826

Country: UNITED STATES OF AMERICA (US)

Current information (Y/N): Y

RCS size: SMALL

Orbital parameters

Period: 100.566 minutes

Inclination: 66.5999 deg

SMA: 7163.561 km

Apoapsis: 826.308 km

Periapsis: 744.545 km

RAAN: 3.5685 deg

Eccentricy: 0.0057069

Argument of periapsis: 279.3909 deg

Mean anomaly: 159.3001 deg

Mean motion: 14.31888785 rev/day

Mean motion (dot): 0.00002121 rev/day2

B* drag term: 0.00080855 1/REarth

Two-line elements (TLE)

Creation date: May 5, 2025, 10:26 p.m.

Reference frame: TEME

Reference center: EARTH

Epoch: May 3, 2025, 3:26 a.m. UTC

TLE line 0: 0 THOR ABLESTAR DEB

TLE line 1: 1 48826U 61015NE 25123.14333515 .00002121 00000-0 80855-3 0 9994

TLE line 2: 2 48826 66.5999 3.5685 0057069 279.3909 159.3001 14.31888785595952

Live tracking on map

Real-time ground track for satellite THOR ABLESTAR DEB.

In-orbit conjunctions

A list of the most updated potential collisions computed for object THOR ABLESTAR DEB.

Target Orbit TCA Probability of collision Miss distance Type
CZ-6A DEB LEO 2025-02-01 09:28:15 0.002508966 55.0 (m) DEBRIS
CZ-6A DEB LEO 2025-01-22 04:33:29 0.0001443022 961.0 (m) DEBRIS
IDEFIX/ARIANE 42P SSO 2024-11-14 11:54:07 0.0001031697 688.0 (m) PAYLOAD
CZ-2C R/B SSO 2024-07-25 17:56:06 0.0001812042 189.0 (m) ROCKET BODY

Associated space launch

THOR ABLESTAR DEB was lifted into orbit during the mission ‘Thor DM-21 Ablestar | Transit 4A & Injun-1 & Solrad 3’, on board a Thor DM-21 Ablestar space rocket.

The launch took place on June 29, 1961, 4:23 a.m. from Space Launch Complex 17B.

For more information about the launch, click the button.

Launch to space Thor DM-21 Ablestar | Transit 4A & Injun-1 & Solrad 3
Thor DM-21 Ablestar | Transit 4A & Injun-1 & Solrad 3

Agency: N/A

Status: Launch Successful

Launch date: June 29, 1961, 4:23 a.m. UTC

Rocket: Thor DM-21 Ablestar

Launch pad: Space Launch Complex 17B

Location: Cape Canaveral SFS, FL, USA

...

Latest news about this satellite

There are no fresh news available about this satellite. Check back as we update our databases every day.


Newsletter sign-up

Weekly statistics, charts and insights to help you stay on top of the space industry.